Location: Unspecified
(42.3650°N, 71.1030°W)
Time: 10:59:04
(UTC+00:00)

Vanguard 1 Rocket - All Passes

Search period start: 25 June 2024 00:00
Search period end: 05 July 2024 00:00
Orbit: 650 x 4220 km, 34.3° (Epoch: 24 June)

Date Brightness Start Highest point End Pass type
(mag) Time Alt. Az. Time Alt. Az. Time Alt. Az.
25 Jun - 04:16:41 10° SSW 04:26:29 36° SE 04:43:18 10° E visible
25 Jun - 06:39:26 10° WSW 06:53:35 64° SSE 07:17:56 10° E visible
25 Jun - 09:05:21 10° W 09:24:29 65° SSW 09:50:15 10° ESE daylight
25 Jun - 11:34:09 10° W 11:55:37 44° SW 12:17:33 10° SSE daylight
25 Jun - 14:10:51 10° W 14:23:35 16° SW 14:35:21 10° SSW daylight
26 Jun - 03:07:32 10° S 03:14:43 22° SE 03:25:29 10° E visible
26 Jun - 05:28:01 10° SW 05:39:43 55° SSE 06:01:04 10° E visible
26 Jun - 07:52:38 10° W 08:09:02 68° S 08:34:46 10° ESE visible
26 Jun - 10:19:50 10° W 10:40:25 54° SSW 11:04:42 10° SE daylight
26 Jun - 12:51:27 10° W 13:10:00 27° SW 13:27:43 10° S daylight
27 Jun - 04:17:21 10° SSW 04:26:54 41° SE 04:44:01 10° E visible
27 Jun - 06:40:32 10° WSW 06:54:15 66° S 07:18:23 10° E visible
27 Jun - 09:06:27 10° W 09:24:57 62° SSW 09:50:30 10° ESE daylight
27 Jun - 11:35:24 10° W 11:55:38 38° SW 12:17:01 10° SSE daylight
27 Jun - 14:16:36 10° WSW 14:23:21 12° WSW 14:29:55 10° SW daylight
28 Jun - 03:07:40 10° S 03:15:01 26° SE 03:26:46 10° E visible
28 Jun - 05:29:03 10° SW 05:40:22 58° SSE 06:01:33 10° E visible
28 Jun - 07:53:47 10° W 08:09:42 66° S 08:35:06 10° ESE visible
28 Jun - 10:20:59 10° W 10:40:40 49° SSW 11:04:31 10° SE daylight
28 Jun - 12:53:40 10° W 13:09:51 22° SW 13:25:53 10° S daylight
29 Jun - 02:00:30 10° SSE 02:03:50 12° SE 02:07:53 10° ESE visible
29 Jun - 04:18:11 10° SW 04:27:27 46° SSE 04:44:38 10° E visible
29 Jun - 06:41:42 10° WSW 06:55:00 66° S 07:18:47 10° ESE visible
29 Jun - 09:07:37 10° W 09:25:26 57° SSW 09:50:33 10° SE daylight
29 Jun - 11:36:54 10° W 11:55:39 33° SW 12:16:03 10° SSE daylight
30 Jun - 03:08:07 10° SSW 03:15:27 30° SE 03:27:47 10° E visible
30 Jun - 05:30:10 10° WSW 05:41:07 61° SSE 06:02:00 10° E visible
30 Jun - 07:54:59 10° W 08:10:21 63° S 08:35:19 10° ESE visible
30 Jun - 10:22:16 10° W 10:40:54 43° SSW 11:04:01 10° SSE daylight
30 Jun - 12:56:53 10° W 13:09:46 17° SW 13:22:51 10° SSW daylight
01 Jul - 01:59:35 10° SSE 02:04:11 16° SE 02:10:24 10° E visible
01 Jul - 04:19:10 10° SW 04:28:08 50° SSE 04:45:13 10° E visible
01 Jul - 06:42:55 10° W 06:55:47 65° S 07:19:07 10° ESE visible
01 Jul - 09:08:50 10° W 09:25:54 52° SSW 09:50:22 10° SE daylight
01 Jul - 11:38:46 10° W 11:55:42 27° SW 12:14:32 10° S daylight
02 Jul - 03:08:49 10° SSW 03:16:01 35° SE 03:28:40 10° E visible
02 Jul - 05:31:22 10° WSW 05:41:57 62° S 06:02:26 10° E visible
02 Jul - 07:56:13 10° W 08:11:01 59° SSW 08:35:22 10° ESE visible
02 Jul - 10:23:43 10° W 10:41:09 37° SW 11:03:08 10° SSE daylight
02 Jul - 13:02:41 10° WSW 13:09:47 12° SW 13:17:01 10° SW daylight
03 Jul - 01:59:32 10° S 02:04:39 20° SE 02:12:06 10° E visible
03 Jul - 04:20:16 10° SW 04:28:56 53° SSE 04:45:46 10° E visible
03 Jul - 06:44:11 10° W 06:56:36 63° S 07:19:21 10° ESE visible
03 Jul - 09:10:09 10° W 09:26:22 46° SSW 09:49:53 10° SE daylight
03 Jul - 11:41:13 10° W 11:55:48 21° SW 12:12:13 10° S daylight
04 Jul - 03:09:42 10° SW 03:16:44 39° SSE 03:29:27 10° E visible
04 Jul - 05:32:37 10° WSW 05:42:52 62° S 06:02:49 10° ESE visible
04 Jul - 07:57:30 10° W 08:11:42 54° SSW 08:35:13 10° SE visible
04 Jul - 10:25:25 10° W 10:41:26 31° SW 11:01:47 10° SSE daylight
